Location: Newark
(42.9277°N, 71.8621°W)
Time: 18:05:57
(UTC+00:00)

Transit 4A - Pass Details

Date: 14 May 2021
Orbit: 872 x 973 km, 66.8° (Epoch: 15 June)

Event Time Altitude Azimuth Distance (km) Brightness Sun altitude
Rises 06:23:32 0° 334° (NNW) 3,497 11.4 -24.2°
Reaches altitude 10° 06:26:21 10° 345° (NNW) 2,544 10.8 -24.0°
Maximum altitude 06:31:30 31° 47° (NE) 1,495 9.6 -23.6°
Drops below altitude 10° 06:36:36 10° 108° (ESE) 2,517 10.3 -23.1°
Sets 06:39:22 0° 119° (ESE) 3,454 10.9 -22.9°
